Regional Weather Roundup
Issued by NWS

Home | Current Version | Previous Version | Text Only | Print | Product List | Glossary On
Versions: 1 2 3 4 5 6 7 8 9 10 11 12 13 14 15 16 17 18 19 20 21 22 23 24 25 26 27 28 29 30 31 32 33 34 35 36 37 38 39 40 41 42 43 44 45 46 47 48 49 50
000
ASUS43 KMKX 212225
RWRWI

WISCONSIN REGIONAL WEATHER ROUNDUP
NATIONAL WEATHER SERVICE MILWAUKEE/SULLIVAN WI
400 PM CST FRI NOV 21 2014

NOTE: "FAIR" INDICATES FEW OR NO CLOUDS BELOW 12,000 FEET WITH NO
SIGNIFICANT WEATHER AND/OR OBSTRUCTIONS TO VISIBILITY.

WIZ001-002-006>008-014>016-023>028-212300-
NORTHWEST WISCONSIN

CITY           SKY/WX    TMP DP  RH WIND       PRES   REMARKS
SUPERIOR ARPT  PTCLDY    30  18  61 SW15G26   29.92S WCI  19
ASHLAND        PTCLDY    27  13  55 S15G25    29.94F WCI  15
HAYWARD        CLEAR     26  13  57 S17G24    29.98F WCI  13
SIREN          PTCLDY    27  16  62 S13G21    29.97F WCI  16
CUMBERLAND     CLEAR     23  12  63 S14       30.00F WCI  11
RICE LAKE      PTCLDY    24  12  60 SE14      30.04F WCI  12
CHETEK         PTCLDY    24  10  56 SE13G18   30.05F WCI  12
LADYSMITH      PTCLDY    24   8  49 S9        30.06F WCI  15
EAU CLAIRE     PTCLDY    25   9  50 S12       30.08F WCI  14
MENOMONIE      CLEAR     28  13  53 SE10G16   30.07F WCI  19
NEW RICHMOND   PTCLDY    27  16  62 S10       30.02F WCI  18
OSCEOLA        PTCLDY    28  18  66 S13       30.03F WCI  17
$$

WIZ003>005-009-010-017-018-212300-
NORTH CENTRAL WISCONSIN

CITY           SKY/WX    TMP DP  RH WIND       PRES   REMARKS
MANITOWISH WTR CLEAR     23   4  45 SW17G28   29.99F WCI   9
ARBOR VITAE    CLEAR     22   5  48 S15       30.02F WCI   9
WOODRUFF       CLEAR     22   5  48 S15       30.02F WCI   9
RHINELANDER    CLEAR     21   4  47 S12       30.06F WCI   9
EAGLE RIVER    CLEAR     21   1  42 SW10G18   30.02F WCI  10
LAND O LAKES   CLEAR     22   4  45 SW12G18   30.01S WCI  10
PHILLIPS       PTCLDY    24   3  40 S9G18     30.02F WCI  14
TOMAHAWK       MOCLDY    22   5  48 S5        30.07F WCI  16
MEDFORD        PTCLDY    22   7  51 S14       30.07F WCI  10
MERRILL        MOCLDY    24   6  46 S10       30.10F WCI  13
$$

WIZ029-030-035-036-043>047-212300-
CENTRAL WISCONSIN

CITY           SKY/WX    TMP DP  RH WIND       PRES   REMARKS
WAUSAU         CLOUDY    25   6  44 S13       30.11F WCI  14
MOSINEE        MOCLDY    25   9  50 S14       30.16S WCI  13
MARSHFIELD     CLEAR     26   8  46 S13       30.12F WCI  15
STEVENS POINT  PTCLDY    25   7  46 S8        30.16F WCI  16
WAUPACA        PTCLDY    30   8  39 S10       30.19F WCI  21
WAUTOMA        PTCLDY    29   6  37 S10       30.21F WCI  20
WISC RAPIDS    CLEAR     28   4  35 S9        30.17F WCI  19
CAMP DOUGLAS   PTCLDY    29   8  39 S9G20     30.17F WCI  21
$$

WIZ011>013-019>022-031-037>040-048>050-212300-
NORTHEAST WISCONSIN

CITY           SKY/WX    TMP DP  RH WIND       PRES   REMARKS
ANTIGO         CLOUDY    21   7  53 S12       30.10F WCI   9
SHAWANO        PTCLDY    28   7  41 S6        30.20F WCI  21
OCONTO         CLEAR     26   5  41 SW9       30.21F WCI  17
STURGEON BAY   PTCLDY    27   7  43 S13       30.20F WCI  16
GREEN BAY      PTCLDY    27   9  46 S13       30.22F WCI  16
MANITOWOC      PTCLDY    30   8  39 S9        30.25F WCI  22
APPLETON       MOCLDY    27   9  46 SW16      30.21F WCI  14
CLINTONVILLE   PTCLDY    27   9  46 S8        30.19F WCI  18
OSHKOSH        MOCLDY    28   9  44 S15       30.22F WCI  16
$$

WIZ032>034-041-042-053>061-212300-
SOUTHWEST WISCONSIN

CITY           SKY/WX    TMP DP  RH WIND       PRES   REMARKS
LA CROSSE      PTCLDY    30  11  45 S14       30.16F WCI  19
SPARTA         PTCLDY    29   6  38 S7        30.17F WCI  22
VIROQUA        PTCLDY    27  10  49 S12       30.15F WCI  16
BOSCOBEL       CLEAR     30   9  41 S5        30.22F WCI  25
PRAIRIE DU CHI CLEAR     31  11  44 E6        30.20F WCI  25
PLATTEVILLE    CLEAR     29  12  49 SE10      30.22F WCI  20
$$

WIZ056-057-062-063-064-067-068-212300-
SOUTH CENTRAL WISCONSIN

CITY           SKY/WX    TMP DP  RH WIND       PRES   REMARKS
REEDSBURG      PTCLDY    29   8  40 S7G16     30.20F WCI  22
BARABOO/DELLS  PTCLDY    29   7  40 S8        30.20F WCI  21
LONE ROCK      CLEAR     32   9  38 S8        30.23F WCI  25
MINERAL POINT  CLEAR     32   9  37 S10       30.20F WCI  24
MADISON        PTCLDY    30   6  36 S14       30.24F WCI  19
MIDDLETON      CLEAR     31   5  33 S10G18    30.23F WCI  23
WATERTOWN      CLEAR     29   7  39 S10       30.25F WCI  20
MONROE         CLEAR     32   9  37 S15       30.24S WCI  22
JANESVILLE     CLEAR     34   1  25 S9        30.27F WCI  26
$$

WIZ051-052-058>065-066-070>072-212300-
SOUTHEAST WISCONSIN

CITY           SKY/WX    TMP DP  RH WIND       PRES   REMARKS
MILWAUKEE      PTCLDY    31   1  28 S12       30.29F WCI  22
WAUKESHA       NOT AVBL
MILWAUKEE/TIMM CLEAR     30   0  27 S10       30.29F WCI  21
RACINE         CLEAR     31   2  29 S9        30.32S WCI  23
BURLINGTON     CLEAR     28   4  35 S12       30.29F WCI  18
KENOSHA        CLEAR     31   1  28 S12       30.30F WCI  22
FOND DU LAC    PTCLDY    29   8  41 S16       30.23F WCI  17
SHEBOYGAN      PTCLDY    29   6  38 S16       30.25F WCI  17
WEST BEND      CLEAR     30   3  31 S8        30.25F WCI  23
JUNEAU         PTCLDY    28   8  43 S12       30.25F WCI  18
$$

LSZ147-162-212300-
LAKE SUPERIOR

STATION/POSITION TIME  TEMP    WIND        PRES    WAVE
                       AIR SEA DIR/SP/G            HT/PER
                 (UTC) (F)     (DEG/KT/KT) (MB)    (FT/S)
DEVILS ISLAND    2200   33     200/ 12/ 17 1012.9F
PORT WING        2100   29     190/ 16/ 23 1013.2F
SAXON HARBOR     2120   31     180/ 10/ 23 1013.9F
$$

LMZ867-665-643>646-212300-
LAKE MICHIGAN

STATION/POSITION TIME  TEMP    WIND        PRES    WAVE
                       AIR SEA DIR/SP/G            HT/PER
                 (UTC) (F)     (DEG/KT/KT) (MB)    (FT/S)
CHAMBERS ISLAND  2100   27     200/ 11/ 21 1023.4F
N MID LAKE BUOY  2150   33 42  220/ 25/ 33 1023.6F   6/ 6
NORTHPORT PIER   2211   27     190/  6/ 16 1022.4F
SISTER BAY       2128          190/ 19/ 24   N/A
ALGOMA LAKESHORE 2028          230/ 22/ 26   N/A
KEWAUNEE LAKESHO 2100   28     190/ 12/ 15 1023.6F
SHEBOYGAN LAKESH 2200   31 35  200/ 16/ 18 1026.0F
PORT WASHINGTON  2100   31     200/  9/ 12 1026.4F
ATWATER BUOY     2200   33     210/ 19/ 21 1026.2F
MILWAUKEE LAKESH 2200   32     190/ 13/ 15   N/A
S MID LAKE BUOY  2150   33 43  180/ 19/ 23 1027.9F   4/ 4
KENOSHA   LAKESH 2200   33     200/  8/ 14 1026.4S
$$

TC  - TEMPERATURE IN CELSIUS
VSB - VISIBILITY IN STATUTE MILES
WCI - WIND CHILL INDEX
HX  - HEAT INDEX



USA.gov is the U.S. government's official web portal to all federal, state and local government web resources and services.